Location: Austin
(30.3000°N, 97.7500°W)
Time: 00:45:15
(UTC-05:00)

Hubble Space Telescope - Visible Passes

Search period start: 19 April 2026 00:00
Search period end: 29 April 2026 00:00
Orbit: 474 x 477 km, 28.5° (Epoch: 18 April)

Date Brightness Start Highest point End Pass type
(mag) Time Alt. Az. Time Alt. Az. Time Alt. Az.
20 Apr 2.8 21:11:52 10° S 21:12:26 11° S 21:12:26 11° S visible
21 Apr 2.6 20:40:41 10° S 20:42:21 13° SSE 20:43:41 11° SE visible
22 Apr 2.1 21:46:58 10° SW 21:48:54 25° SSW 21:48:54 25° SSW visible
23 Apr 1.1 21:15:45 10° SW 21:19:13 37° SSE 21:19:53 34° SE visible
24 Apr 1.2 20:44:31 10° SW 20:47:59 36° SSE 20:50:45 14° ESE visible
24 Apr 3.0 22:23:50 10° W 22:24:48 17° WSW 22:24:48 17° WSW visible
25 Apr 1.1 21:52:35 10° W 21:55:32 49° SW 21:55:32 49° SW visible
26 Apr 0.5 21:21:20 10° W 21:25:03 65° S 21:26:10 41° ESE visible
27 Apr 0.6 20:50:04 10° W 20:53:47 65° S 20:56:44 15° E visible
27 Apr 3.1 22:29:45 10° W 22:30:46 17° W 22:30:46 17° W visible
28 Apr 1.4 21:58:29 10° W 22:01:15 41° WSW 22:01:15 41° WSW visible
